Impacts METAR Board
IDs:

KJFK - New York/Kennedy Int, NY, US

Updated at: 2100 UTC 15 Oct 2018
Potential Impact None Slight Moderate High
Time 15/09Z 15/10Z 15/11Z 15/12Z 15/13Z 15/14Z 15/15Z 15/16Z 15/17Z 15/18Z 15/19Z 15/20Z 15/21Z
Temp55 59 58 59 61 63 62 63 64 65 65 65 65
Dewpt53 55 58 59 60 58 60 62 64 64 64 64 64
Altim30.18 30.17 30.16 30.15 30.14 30.13 30.11 30.08 30.03 30.01 29.99 29.97 29.95
VIS10 10 10 10 5 10 4 6 10 10 10 10 10
CIG31 36 32 28 24 28 26 14 14 12 12 14 160
CoverOVCOVCOVCOVCOVCOVCOVCOVCOVCOVCOVCOVCOVC
FltCatVFRVFRVFRMVFRMVFRMVFRMVFRMVFRMVFRMVFRMVFRMVFRVFR
WX---------RA BR--RA BR-RA BR----------
WDir0220210180170190200200210220230230210
WSpd0 11 9 8 8 14 14 18 14 12 16 14 9
WGst-- -- -- -- -- -- -- -- -- -- -- -- --
Raw hourly METARs
KJFK 150851Z 00000KT 10SM OVC031 13/12 A3018 RMK AO2 RAE50 SLP219 P0000 60000 T01280117 58012 $
KJFK 150951Z 22011KT 10SM FEW012 OVC036 15/13 A3017 RMK AO2 RAB0856E25 SLP216 P0000 T01500128 $
KJFK 151051Z 21009KT 10SM FEW012 SCT024 OVC032 14/14 A3016 RMK AO2 RAB19E50 SLP212 P0000 T01440144 $
KJFK 151151Z 18008KT 10SM FEW012 OVC028 15/15 A3015 RMK AO2 RAB19E29 SLP210 P0000 60000 T01500150 10150 20111 56009 $
KJFK 151251Z 17008KT 5SM -RA BR FEW014 BKN024 OVC036 16/16 A3014 RMK AO2 RAB30 SLP204 P0001 T01610156 $
KJFK 151351Z 19014KT 10SM FEW016 OVC028 17/14 A3013 RMK AO2 RAE16 SLP201 VCSH NW-NE P0000 T01720144 $
KJFK 151451Z 20014KT 4SM RA BR OVC026 17/16 A3011 RMK AO2 RAB1352E07B27 SLP197 P0003 60004 T01670156 56013 $
KJFK 151551Z 20018KT 6SM -RA BR BKN014 OVC027 17/17 A3008 RMK AO2 SLP186 P0002 T01720167 $
KJFK 151651Z 21014KT 10SM FEW010 BKN014 OVC022 18/18 A3003 RMK AO2 RAE10 SLP170 P0000 T01780178 $
KJFK 151751Z 22012KT 10SM OVC012 18/18 A3001 RMK AO2 SLP162 60006 T01830178 10183 20150 56035 $
KJFK 151851Z 23016KT 10SM OVC012 18/18 A2999 RMK AO2 SLP156 T01830178 $
KJFK 151951Z 23014KT 10SM OVC014 18/18 A2997 RMK AO2 SLP149 T01830178 $
KJFK 152051Z 21009KT 10SM FEW011 SCT048 SCT075 OVC160 18/18 A2995 RMK AO2 SLP142 T01830178 58020 $



Page loaded:  21:59 UTC  |   02:59 PM Pacific  |   03:59 PM Mountain  |   04:59 PM Central  |   05:59 PM Eastern

 

ADVISORIES

FORECASTS

FORECASTS

OBSERVATIONS

USER TOOLS

ABOUT US